| time (UTC) | temp C | wind direction | speed KPH | gust KPH | rain 1hr cm | rain 24hr cm | rain mn cm | humidity % | barometer mb |
| 20260503150236 | 12 | 112 | 4.8 | 6.4 | 0.00 | 0.00 | 0.00 | 98 | 1022.0 |
| 20260503140231 | 15 | 120 | 4.8 | 8.0 | 0.00 | 0.00 | 0.00 | 98 | 1022.0 |
| 20260503131227 | 12 | 121 | 4.8 | 8.0 | 0.00 | 0.00 | 0.00 | 98 | 1021.0 |
| 20260503130226 | 15 | 121 | 4.8 | 8.0 | 0.00 | 0.00 | 0.00 | 98 | 1021.0 |
| 20260503120222 | 12 | 129 | 4.8 | 8.0 | 0.03 | 0.00 | 0.00 | 99 | 1020.0 |
| 20260503110218 | 9 | 124 | 4.8 | 8.0 | 0.05 | 0.00 | 0.00 | 99 | 1019.0 |
| 20260503100213 | 16 | 122 | 4.8 | 6.4 | 0.03 | 0.00 | 0.00 | 97 | 1019.0 |
| 20260503090209 | 16 | 119 | 1.6 | 3.2 | 0.00 | 0.00 | 0.00 | 97 | 1018.0 |
| 20260503081205 | 11 | 135 | 1.6 | 3.2 | 0.00 | 0.00 | 0.00 | 97 | 1018.0 |
| 20260503080201 | 16 | 135 | 1.6 | 1.6 | 0.00 | 0.00 | 0.00 | 97 | 1018.0 |
| 20260503072158 | 12 | 126 | 1.6 | 3.2 | 0.00 | 0.00 | 0.00 | 97 | 1019.0 |
| 20260503071157 | 15 | 126 | 1.6 | 1.6 | 0.00 | 0.00 | 0.00 | 96 | 1019.0 |
| 20260503070156 | 13 | 126 | 1.6 | 3.2 | 0.00 | 0.00 | 0.00 | 96 | 1019.0 |
| 20260503060152 | 14 | 121 | 1.6 | 1.6 | 0.00 | 0.00 | 0.00 | 96 | 1020.0 |
| 20260503054151 | 15 | 117 | 1.6 | 1.6 | 0.00 | 0.00 | 0.00 | 97 | 1020.0 |
| 20260503053150 | 13 | 117 | 1.6 | 1.6 | 0.00 | 0.00 | 0.00 | 97 | 1020.0 |
| 20260503052149 | 11 | 117 | 1.6 | 3.2 | 0.00 | 0.00 | 0.00 | 97 | 1021.0 |
| 20260503051148 | 15 | 117 | 1.6 | 1.6 | 0.00 | 0.00 | 0.00 | 97 | 1021.0 |
| 20260503050148 | 13 | 117 | 1.6 | 3.2 | 0.00 | 0.00 | 0.00 | 97 | 1021.0 |
| 20260503045147 | 15 | 117 | 1.6 | 1.6 | 0.00 | 0.00 | 0.00 | 97 | 1021.0 |
| 20260503044146 | 13 | 117 | 1.6 | 3.2 | 0.00 | 0.00 | 0.00 | 97 | 1021.0 |
| 20260503043145 | 16 | 117 | 1.6 | 3.2 | 0.00 | 0.00 | 0.00 | 98 | 1021.0 |
| 20260503042145 | 14 | 107 | 1.6 | 4.8 | 0.00 | 0.00 | 0.00 | 98 | 1022.0 |
| 20260503041144 | 12 | 107 | 3.2 | 4.8 | 0.00 | 0.00 | 0.00 | 98 | 1022.0 |
| 20260503040143 | 15 | 107 | 1.6 | 4.8 | 0.00 | 0.00 | 0.00 | 96 | 1022.0 |
| 20260503035143 | 13 | 107 | 1.6 | 4.8 | 0.00 | 0.00 | 0.00 | 96 | 1022.0 |
| 20260503034142 | 11 | 107 | 3.2 | 4.8 | 0.00 | 0.00 | 0.00 | 96 | 1022.0 |
| 20260503033141 | 15 | 105 | 1.6 | 6.4 | 0.00 | 0.00 | 0.00 | 96 | 1022.0 |
| 20260503032140 | 13 | 105 | 1.6 | 6.4 | 0.00 | 0.00 | 0.00 | 96 | 1022.0 |
| 20260503031134 | 11 | 105 | 1.6 | 6.4 | 0.00 | 0.00 | 0.00 | 96 | 1022.0 |
| 20260503030134 | 10 | 105 | 3.2 | 6.4 | 0.00 | 0.00 | 0.00 | 96 | 1022.0 |
| 20260503025133 | 16 | 105 | 3.2 | 6.4 | 0.00 | 0.00 | 0.00 | 97 | 1022.0 |
| 20260503024132 | 14 | 105 | 1.6 | 6.4 | 0.00 | 0.00 | 0.00 | 97 | 1022.0 |
| 20260503023131 | 12 | 105 | 3.2 | 6.4 | 0.00 | 0.00 | 0.00 | 97 | 1022.0 |
| 20260503022129 | 15 | 102 | 1.6 | 4.8 | 0.00 | 0.00 | 0.00 | 95 | 1021.0 |
| 20260503021128 | 13 | 102 | 3.2 | 4.8 | 0.00 | 0.00 | 0.00 | 95 | 1021.0 |
| 20260503020127 | 15 | 102 | 1.6 | 4.8 | 0.00 | 0.00 | 0.00 | 95 | 1021.0 |
| 20260503015127 | 13 | 102 | 3.2 | 4.8 | 0.00 | 0.00 | 0.00 | 95 | 1021.0 |
| 20260503014126 | 15 | 114 | 1.6 | 4.8 | 0.00 | 0.00 | 0.00 | 94 | 1021.0 |
| 20260503013125 | 13 | 114 | 1.6 | 4.8 | 0.00 | 0.00 | 0.00 | 94 | 1021.0 |
| 20260503012124 | 11 | 114 | 1.6 | 4.8 | 0.00 | 0.00 | 0.00 | 94 | 1020.0 |
| 20260503011123 | 10 | 114 | 1.6 | 4.8 | 0.00 | 0.00 | 0.00 | 94 | 1020.0 |
| 20260503010123 | 14 | 114 | 1.6 | 4.8 | 0.00 | 0.00 | 0.00 | 96 | 1020.0 |
| 20260503005122 | 14 | 114 | 1.6 | 4.8 | 0.00 | 0.00 | 0.00 | 96 | 1020.0 |
| 20260503004121 | 15 | 114 | 1.6 | 4.8 | 0.00 | 0.00 | 0.00 | 94 | 1020.0 |
| 20260503003121 | 13 | 114 | 0.0 | 1.6 | 0.00 | 0.00 | 0.00 | 94 | 1022.0 |
| 20260503002120 | 16 | 72 | 0.0 | 1.6 | 0.00 | 0.00 | 0.00 | 95 | 1019.0 |
| 20260503001119 | 14 | 72 | 0.0 | 1.6 | 0.00 | 0.00 | 0.00 | 95 | 1019.0 |
| 20260503000119 | 14 | 72 | 0.0 | 1.6 | 0.00 | 0.00 | 0.00 | 95 | 1019.0 |
| 20260502235118 | 12 | 72 | 0.0 | 1.6 | 0.00 | 0.00 | 0.00 | 95 | 1019.0 |
| 20260502234117 | 15 | 72 | 0.0 | 1.6 | 0.00 | 0.00 | 0.00 | 95 | 1019.0 |
| 20260502233117 | 15 | 107 | 1.6 | 6.4 | 0.00 | 0.00 | 0.00 | 96 | 1019.0 |
| 20260502232116 | 13 | 107 | 1.6 | 6.4 | 0.00 | 0.00 | 0.00 | 96 | 1019.0 |
| 20260502231115 | 15 | 107 | 1.6 | 6.4 | 0.00 | 0.00 | 0.00 | 95 | 1019.0 |
| 20260502230115 | 13 | 107 | 1.6 | 6.4 | 0.00 | 0.00 | 0.00 | 95 | 1019.0 |
| 20260502225114 | 11 | 107 | 1.6 | 6.4 | 0.00 | 0.00 | 0.00 | 95 | 1019.0 |
| 20260502224113 | 10 | 107 | 1.6 | 6.4 | 0.00 | 0.00 | 0.00 | 95 | 1019.0 |
| 20260502223112 | 16 | 107 | 1.6 | 6.4 | 0.00 | 0.00 | 0.00 | 97 | 1019.0 |
| 20260502222112 | 14 | 114 | 1.6 | 6.4 | 0.00 | 0.00 | 0.00 | 97 | 1018.0 |
| 20260502221111 | 12 | 114 | 3.2 | 6.4 | 0.00 | 0.00 | 0.00 | 97 | 1018.0 |
| 20260502220110 | 15 | 114 | 1.6 | 6.4 | 0.00 | 0.00 | 0.00 | 97 | 1018.0 |
| 20260502215107 | 13 | 114 | 3.2 | 6.4 | 0.00 | 0.00 | 0.00 | 97 | 1018.0 |
| 20260502214106 | 15 | 114 | 1.6 | 6.4 | 0.00 | 0.00 | 0.00 | 98 | 1018.0 |
| 20260502213105 | 13 | 114 | 3.2 | 6.4 | 0.00 | 0.00 | 0.00 | 98 | 1018.0 |
| 20260502212104 | 15 | 109 | 4.8 | 8.0 | 0.00 | 0.00 | 0.00 | 98 | 1017.0 |
| 20260502211104 | 13 | 109 | 4.8 | 8.0 | 0.03 | 0.00 | 0.00 | 98 | 1017.0 |
| 20260502205102 | 10 | 109 | 4.8 | 8.0 | 0.03 | 0.00 | 0.00 | 98 | 1017.0 |
| 20260502204101 | 14 | 117 | 4.8 | 8.0 | 0.00 | 0.00 | 0.00 | 98 | 1017.0 |
| 20260502203101 | 12 | 117 | 4.8 | 8.0 | 0.03 | 0.00 | 0.00 | 98 | 1017.0 |
| 20260502202100 | 10 | 117 | 4.8 | 8.0 | 0.00 | 0.00 | 0.00 | 98 | 1018.0 |
| 20260502201059 | 15 | 117 | 4.8 | 8.0 | 0.00 | 0.00 | 0.00 | 95 | 1018.0 |
| 20260502200059 | 13 | 117 | 4.8 | 8.0 | 0.00 | 0.00 | 0.00 | 95 | 1018.0 |
| 20260502195058 | 12 | 117 | 4.8 | 8.0 | 0.00 | 0.00 | 0.00 | 95 | 1018.0 |